This is the latest recevied weather packets stored in our database for station/object G4KVI. If no packets are shown the sender has not sent any weather packets the latest 10 day(s).
| Time | Temp. | Humidity | Pressure | Rain* | Wind** | Luminosity | Snow |
|---|---|---|---|---|---|---|---|
| 1788156603 | 14.44° C | 96% | 1010.5 hPa | 0 mm | - | 51 W/m² | - |
| 1788156303 | 14.44° C | 96% | 1010.3 hPa | 0 mm | - | 32 W/m² | - |
| 1788156003 | 13.89° C | 96% | 1010.6 hPa | 0 mm | - | 23 W/m² | - |
| 1788155703 | 13.89° C | 96% | 1010.6 hPa | 0 mm | - | 17 W/m² | - |
| 1788155403 | 13.89° C | 96% | 1010.3 hPa | 0 mm | - | 16 W/m² | - |
| 1788155103 | 13.89° C | 96% | 1010.1 hPa | 0.25 mm | - | 15 W/m² | - |
| 1788154803 | 13.89° C | 96% | 1009.9 hPa | 0.25 mm | - | 11 W/m² | - |
| 1788154503 | 13.89° C | 96% | 1010.1 hPa | 0.25 mm | - | 8 W/m² | - |
| 1788154203 | 13.89° C | 96% | 1010 hPa | 0.25 mm | - | 5 W/m² | - |
| 1788153904 | 13.89° C | 96% | 1009.9 hPa | 0.25 mm | - | 3 W/m² | - |
| 1788153603 | 13.89° C | 96% | 1009.5 hPa | 0.25 mm | - | 2 W/m² | - |
| 1788153303 | 13.33° C | 96% | 1009.6 hPa | 0.25 mm | - | 0 W/m² | - |
| 1788153003 | 13.33° C | 96% | 1009.5 hPa | 0.51 mm | - | 0 W/m² | - |
| 1788152703 | 13.33° C | 96% | 1009.5 hPa | 0.51 mm | - | 0 W/m² | - |
| 1788152403 | 13.33° C | 96% | 1009.5 hPa | 0.51 mm | - | 0 W/m² | - |
| 1788152103 | 13.33° C | 96% | 1009.5 hPa | 0.51 mm | - | 0 W/m² | - |
| 1788151803 | 13.33° C | 96% | 1009.5 hPa | 0.51 mm | - | 0 W/m² | - |
| 1788151503 | 13.33° C | 95% | 1009.1 hPa | 0.25 mm | - | 0 W/m² | - |
| 1788151203 | 13.33° C | 95% | 1009.1 hPa | 0.25 mm | - | 0 W/m² | - |
| 1788150903 | 13.33° C | 95% | 1009.1 hPa | 0.25 mm | - | 0 W/m² | - |
| 1788150603 | 13.33° C | 95% | 1009.1 hPa | 0.25 mm | - | 0 W/m² | - |
| 1788150303 | 12.78° C | 95% | 1009 hPa | 0.25 mm | - | 0 W/m² | - |
| 1788150003 | 12.78° C | 95% | 1009 hPa | 0.25 mm | - | 0 W/m² | - |
| 1788149703 | 12.78° C | 95% | 1009.1 hPa | 0.25 mm | - | 0 W/m² | - |
| 1788149403 | 12.78° C | 95% | 1008.9 hPa | 0 mm | - | 0 W/m² | - |
* Rain latest hour (hover to see other rain measurements)
** Current wind speed in m/s (hover to see current wind gust speed)